This demonstration page uses our WeatherBlox Daily Observations layout. Learn more.

38.88101, -77.10428

Hourly Observations for June 24, 2019

Temp ( °F °C ) Dew Point ( °F °C ) Humidity (%) Winds ( mph kmh ) Pressure ( in mb ) Visibility ( mi km ) Precip ( " mm )
12:52 am 00:52 Partly Cloudy 72 22.2 62 16.7 71 71 S 8 13 29.93 1013 10 16.0934 0 0
1:52 am 01:52 Partly Cloudy 72 22.2 62 16.7 71 71 S 8 13 29.91 1013 10 16.0934 0 0
2:52 am 02:52 Partly Cloudy 71 21.7 62 16.7 73 73 S 7 11 29.9 1012 10 16.0934 0 0
3:52 am 03:52 Mostly Clear 71 21.7 63 17.2 76 76 S 5 7 29.88 1012 10 16.0934 0 0
4:52 am 04:52 Mostly Clear 70 21.1 62 16.7 76 76 S 7 11 29.88 1012 10 16.0934 0 0
5:52 am 05:52 Mostly Cloudy 70 21.1 61 16.1 73 73 SSW 7 11 29.89 1012 10 16.0934 0 0
6:52 am 06:52 Mostly Cloudy 71 21.7 62 16.7 73 73 SSW 6 9 29.91 1013 10 16.0934 0 0
7:52 am 07:52 Mostly Cloudy 73 22.8 61 16.1 66 66 SW 7 11 29.91 1013 10 16.0934 0 0
8:52 am 08:52 Partly Cloudy 76 24.4 62 16.7 62 62 SSW 6 9 29.91 1013 10 16.0934 0 0
9:52 am 09:52 Partly Cloudy 78 25.6 66 18.9 67 67 S 8 13 29.91 1013 10 16.0934 0 0
10:52 am 10:52 Partly Cloudy 80 26.7 65 18.3 60 60 SSE 6 9 29.9 1013 10 16.0934 0 0
11:52 am 11:52 Partly Cloudy 82 27.8 67 19.4 60 60 S 9 15 29.89 1012 10 16.0934 0 0
12:52 pm 12:52 Mostly Cloudy 84 28.9 69 20.6 61 61 S 9 15 29.87 1012 10 16.0934 0 0
1:52 pm 13:52 Mostly Cloudy 87 30.6 70 21.1 57 57 S 10 17 29.86 1011 10 16.0934 0 0
2:52 pm 14:52 Mostly Cloudy 87 30.6 72 22.2 61 61 S 10 17 29.85 1011 10 16.0934 0 0
3:52 pm 15:52 Cloudy 86 30 72 22.2 63 63 S 9 15 29.84 1011 10 16.0934 0 0
4:52 pm 16:52 Cloudy with Light Rain 85 29.4 70 21.1 61 61 S 5 7 29.84 1011 10 16.0934 0 0.0254
5:52 pm 17:52 Cloudy with Light Rain 82 27.8 71 21.7 69 69 SE 3 6 29.82 1010 8 12.87472 0 0.0254
6:52 pm 18:52 Cloudy with Light Rain 80 26.7 75 23.9 85 85 S 7 11 29.81 1010 8 12.87472 0.01 0.254
7:52 pm 19:52 Mostly Cloudy 80 26.7 74 23.3 82 82 SSW 10 17 29.81 1010 10 16.0934 0.01 0.254
8:52 pm 20:52 Mostly Cloudy 77 25 71 21.7 82 82 S 6 9 29.81 1010 10 16.0934 0 0
9:52 pm 21:52 Partly Cloudy 76 24.4 71 21.7 85 85 S 7 11 29.81 1010 10 16.0934 0 0
10:52 pm 22:52 Mostly Cloudy 76 24.4 72 22.2 88 88 S 5 7 29.81 1009 10 16.0934 0 0
11:52 pm 23:52 Cloudy 76 24.4 71 21.7 85 85 S 7 11 29.8 1009 10 16.0934 0 0

Powered by AerisWeather